Regional Weather Roundup
Issued by NWS Albany, NY

Home | Current Version | Previous Version | Text Only | Print | Product List | Glossary On
Versions: 1 2 3 4 5 6 7 8 9 10 11 12 13 14 15 16 17 18 19 20 21 22 23 24 25 26 27
000
ASUS41 KALY 031110
RWRALY

NEW YORK STATE HOURLY WEATHER ROUNDUP
NATIONAL WEATHER SERVICE ALBANY NY
700 AM EDT TUE AUG 03 2021

NOTE: "FAIR" INDICATES FEW OR NO CLOUDS BELOW 12,000 FEET WITH NO
SIGNIFICANT WEATHER AND/OR NO OBSTRUCTIONS TO VISIBILITY.

NYZ032-033-038>043-046>054-057>066-NYZ062>081-082-084-031200-
EAST


CITY           SKY/WX    TMP DP  RH WIND       PRES   REMARKS
ALBANY         MOSUNNY   52  52 100 CALM      30.14R
GLENS FALLS    SUNNY     51  50  96 CALM      30.13R
POUGHKEEPSIE   PTSUNNY   53  51  93 CALM      30.14R
NEWBURGH       PTSUNNY   54  54 100 CALM      30.14R
MONTGOMERY     PTSUNNY   50  49  96 SW5       30.14R
WHITE PLAINS   CLOUDY    60  52  74 NW7       30.13R
ISLIP          CLOUDY    65  59  81 N3        30.11R
NEW YORK CITY  CLOUDY    68  54  60 CALM      30.12R
CENTRAL PARK   CLOUDY    67  57  70 NE3       30.15
$$

NYZ005>009-017-018-044>046-055-056-031200-
CENTRAL


CITY           SKY/WX    TMP DP  RH WIND       PRES   REMARKS
FULTON         CLEAR     53  49  86 CALM      30.11R
SYRACUSE       PTCLDY    54  48  80 SE5       30.12S
ROME           SUNNY     51  48  89 SE7       30.14R
ELMIRA         FOG       52  51  97 NW3       30.15S VSB 1/4
BINGHAMTON     CLEAR     52  49  89 CALM      30.15R
MONTICELLO     PTSUNNY   46  45  96 CALM      30.17R
$$

NYZ026>034-041>043-087-031200-
NORTH


CITY           SKY/WX    TMP DP  RH WIND       PRES   REMARKS
WATERTOWN      SUNNY     58  50  75 S6        30.09R
FORT DRUM      NOT AVBL
OGDENSBURG     FAIR      57  55  94 S5        30.04S
MASSENA        SUNNY     59  54  83 SW8       30.06S
SARANAC LAKE   SUNNY     46  46 100 CALM      30.10S
PLATTSBURGH    SUNNY     56  53  90 S3        30.06S
$$

NYZ001>004-010>016-019>021-085-031200-
WEST


CITY           SKY/WX    TMP DP  RH WIND       PRES   REMARKS
NIAGARA FALLS  CLEAR     58  55  90 CALM      30.10S
BUFFALO        CLEAR     57  53  86 S5        30.12R
DUNKIRK        CLEAR     61  54  77 SW5       30.12S
JAMESTOWN      PTCLDY    50  49  96 MISG      30.16S
WELLSVILLE     CLEAR     46  46 100 CALM      30.18R FOG
ROCHESTER      PTCLDY    54  51  90 SW8       30.12R
PENN YAN       CLEAR     55  52  89 SW7       30.14S
$$

             KEY
       WCI = WIND CHILL INDEX
       VSB = VISIBILITY
       HX  = HEAT INDEX
$$



USA.gov is the U.S. government's official web portal to all federal, state and local government web resources and services.